User: anonymous   Login
Location: Piotrkow Trybunalski
(51.4000°N, 19.6830°E)
Time: 23:06:12
(UTC+02:00)
Language:

A-11 Canister half - Orbit

View from above orbital plane
View from above orbital plane
View from above satellite
View from above satellite

Ground track
Ground track

The orbit data is extracted from the following two-line orbital elements,

1 00051U 60009C   24146.56738863 -.00000092  00000-0 -64283-4 0  9994
2 00051  47.2112 218.1466 0107045 119.5743 241.5763 12.18327745839413
Epoch (UTC): 25 May 2024 13:37:02
Eccentricity: 0.0107045
inclination: 47.2112°
perigee height: 1514 km
apogee height: 1685 km
right ascension of ascending node: 218.1466°
argument of perigee: 119.5743°
revolutions per day: 12.18327745
mean anomaly at epoch: 241.5763°
orbit number at epoch: 83941

The dashed part of the orbit path shows where the satellite is in the earth's shadow,  

DLR